Location: Newark
(50.0306°N, 2.3272°E)
Time: 01:50:36
(UTC+00:00)

Vanguard 1 Rocket - Pass Details

Date: 19 December 2019
Orbit: 650 x 4226 km, 34.3° (Epoch: 25 January)

Event Time Altitude Azimuth Distance (km) Brightness Sun altitude
Rises 20:06:30 0° 249° (WSW) 8,376 13.0 -39.8°
Reaches altitude 10° 20:13:04 10° 244° (WSW) 7,107 12.4 -40.8°
Maximum altitude 20:33:00 44° 183° (S) 3,517 10.1 -43.9°
Enters shadow 20:33:07 44° 182° (S) 3,506 10.0 -43.9°
Drops below altitude 10° 20:44:28 10° 116° (ESE) 4,232 - -45.7°
Sets 20:47:16 0° 109° (ESE) 4,859 - -46.1°
